�N����,����,�~����,�C��,���x,�C��,����,���ϕ���,�ő�u�ԕ���,�ő厞����,���˗�,�I�_���x,�n�����x,�ő啗���N��,DTYPE
"17/09/30","00:10",0.0,15.9,92.4,1012.6,308.8,0.5,1.2,309.8,0.00,14.7,20.7,"00:07:52",1
"17/09/30","00:20",0.0,16.0,92.7,1012.1,308.3,0.6,1.1,330.5,0.00,14.9,20.7,"00:19:12",1
"17/09/30","00:30",0.0,16.0,92.9,1012.1,311.1,0.7,1.3,323.4,0.00,14.9,20.6,"00:24:24",1
"17/09/30","00:40",0.0,16.0,93.3,1012.6,319.3,1.1,1.9,321.2,0.00,15.0,20.5,"00:38:00",1
"17/09/30","00:50",0.0,16.2,93.2,1012.3,302.8,1.2,1.8,309.6,0.00,15.1,20.6,"00:45:12",1
"17/09/30","01:00",0.0,16.4,93.0,1012.6,326.0,1.2,1.7,335.9,0.00,15.3,20.6,"00:53:52",1
"17/09/30","01:10",0.0,16.4,92.8,1012.3,315.2,1.0,1.6,334.5,0.00,15.3,20.5,"01:02:24",1
"17/09/30","01:20",0.0,16.3,92.9,1012.6,307.5,0.8,1.2,328.2,0.00,15.2,20.5,"01:10:08",1
"17/09/30","01:30",0.0,16.2,92.9,1012.3,300.0,0.8,1.3,325.6,0.00,15.1,20.5,"01:21:12",1
"17/09/30","01:40",0.0,16.2,92.9,1013.0,287.9,0.8,1.6,302.6,0.00,15.1,20.5,"01:38:40",1
"17/09/30","01:50",0.0,16.4,92.5,1013.0,325.5,1.2,1.9,300.9,0.00,15.2,20.6,"01:42:00",1
"17/09/30","02:00",0.0,16.6,92.0,1012.8,328.6,1.6,3.4,335.7,0.00,15.3,20.4,"01:54:56",1
"17/09/30","02:10",0.0,16.9,90.8,1013.3,321.3,1.8,2.8,339.3,0.00,15.4,20.5,"02:05:20",1
"17/09/30","02:20",0.0,16.9,89.9,1013.5,335.6,1.5,2.6,331.1,0.00,15.3,20.5,"02:12:00",1
"17/09/30","02:30",0.0,16.9,89.4,1013.5,333.9,1.6,2.9,331.0,0.00,15.2,20.4,"02:20:24",1
"17/09/30","02:40",0.0,16.9,89.1,1013.0,336.1,1.3,2.6,342.2,0.00,15.1,20.3,"02:35:44",1
"17/09/30","02:50",0.0,16.8,88.9,1012.8,337.6,1.1,1.9,330.6,0.00,15.0,20.2,"02:48:00",1
"17/09/30","03:00",0.0,16.6,88.8,1013.3,326.4,1.2,2.0,333.5,0.00,14.8,20.3,"02:51:28",1
"17/09/30","03:10",0.0,16.2,89.4,1013.5,320.6,1.0,1.3,319.6,0.00,14.5,20.3,"03:05:20",1
"17/09/30","03:20",0.0,16.1,90.0,1013.8,325.9,1.3,2.0,334.4,0.00,14.5,20.4,"03:16:16",1
"17/09/30","03:30",0.0,15.9,90.0,1013.8,312.1,0.8,1.8,335.1,0.00,14.3,20.3,"03:20:32",1
"17/09/30","03:40",0.0,15.8,91.0,1013.5,322.1,1.1,2.5,341.5,0.00,14.4,20.1,"03:37:12",1
"17/09/30","03:50",0.0,16.3,90.8,1013.5,331.6,2.1,3.9,332.3,0.00,14.8,20.3,"03:42:16",1
"17/09/30","04:00",0.0,16.3,89.7,1013.8,335.8,1.5,2.5,331.7,0.00,14.6,20.1,"03:50:16",1
"17/09/30","04:10",0.0,16.0,89.8,1013.8,331.0,1.3,3.2,340.5,0.00,14.4,20.2,"04:06:24",1
"17/09/30","04:20",0.0,15.7,90.5,1014.0,328.3,1.5,3.2,337.2,0.00,14.2,19.9,"04:18:24",1
"17/09/30","04:30",0.0,15.6,91.0,1014.2,331.5,1.6,2.5,339.2,0.00,14.2,19.9,"04:28:00",1
"17/09/30","04:40",0.0,15.5,91.3,1014.2,330.1,1.2,2.1,325.6,0.00,14.1,20.0,"04:39:36",1
"17/09/30","04:50",0.0,15.6,91.5,1014.0,331.7,1.7,2.7,327.5,0.00,14.3,19.9,"04:44:16",1
"17/09/30","05:00",0.0,15.6,91.6,1014.2,330.3,2.0,3.5,339.1,0.00,14.3,20.0,"04:54:40",1
"17/09/30","05:10",0.0,15.7,91.7,1014.0,322.0,1.8,3.7,328.2,0.00,14.4,19.9,"05:05:08",1
"17/09/30","05:20",0.0,15.7,91.4,1014.0,326.8,1.7,2.8,322.7,0.00,14.3,20.1,"05:10:08",1
"17/09/30","05:30",0.0,15.7,91.4,1014.5,322.0,1.7,2.5,337.6,0.00,14.3,19.7,"05:21:36",1
"17/09/30","05:40",0.0,15.6,91.3,1014.5,327.8,1.6,2.2,329.8,0.00,14.2,19.6,"05:32:24",1
"17/09/30","05:50",0.0,15.4,91.3,1014.7,325.5,1.2,2.2,338.4,0.00,14.0,19.8,"05:40:08",1
"17/09/30","06:00",0.0,15.3,91.7,1015.2,328.7,1.6,2.6,336.4,0.00,14.0,19.8,"05:54:56",1
"17/09/30","06:10",0.0,15.2,91.8,1014.7,321.3,1.6,2.8,323.8,0.00,13.9,19.7,"06:08:40",1
"17/09/30","06:20",0.0,15.3,92.0,1014.9,329.6,1.7,2.7,334.5,0.00,14.0,19.8,"06:10:16",1
"17/09/30","06:30",0.0,15.6,92.1,1015.4,328.1,2.1,3.6,327.5,0.01,14.4,19.7,"06:23:04",1
"17/09/30","06:40",0.0,16.1,91.3,1015.6,336.3,1.8,3.9,319.4,0.01,14.7,19.9,"06:31:20",1
"17/09/30","06:50",0.0,16.7,88.7,1015.6,336.4,1.3,3.1,339.0,0.03,14.9,19.6,"06:41:12",1
"17/09/30","07:00",0.0,16.8,88.3,1015.9,336.1,1.3,2.8,334.1,0.02,14.9,19.7,"06:53:12",1
"17/09/30","07:10",0.0,16.9,88.5,1015.9,336.7,1.5,2.5,344.2,0.03,15.0,19.8,"07:07:12",1
"17/09/30","07:20",0.0,17.3,87.9,1015.9,321.2,1.5,2.8,332.5,0.04,15.3,19.8,"07:13:20",1
"17/09/30","07:30",0.0,18.0,85.6,1015.9,330.6,1.3,2.2,342.5,0.10,15.6,19.8,"07:29:12",1
"17/09/30","07:40",0.0,19.6,80.9,1016.4,318.8,1.3,2.9,341.5,0.20,16.3,19.7,"07:30:08",1
"17/09/30","07:50",0.0,19.9,77.4,1016.4,300.1,1.1,2.4,341.1,0.15,15.9,19.5,"07:49:04",1
"17/09/30","08:00",0.0,20.0,76.8,1016.4,326.3,1.8,3.5,328.1,0.16,15.8,20.0,"07:53:36",1
"17/09/30","08:10",0.0,20.9,74.0,1016.4,310.2,0.8,2.5,334.9,0.23,16.1,20.1,"08:00:40",1
"17/09/30","08:20",0.0,20.9,72.7,1016.4,273.2,0.8,2.6,224.9,0.23,15.9,20.3,"08:15:52",1
"17/09/30","08:30",0.0,21.0,71.6,1016.4,208.6,1.0,2.0,226.3,0.21,15.7,20.2,"08:20:56",1
"17/09/30","08:40",0.0,21.0,72.1,1016.6,276.4,0.6,1.6,322.1,0.13,15.8,20.4,"08:38:16",1
"17/09/30","08:50",0.0,20.6,72.2,1016.6,289.3,1.0,2.6,345.2,0.12,15.5,20.4,"08:41:36",1
"17/09/30","09:00",0.0,20.8,72.3,1016.4,302.0,0.8,2.2,346.0,0.12,15.7,20.5,"08:56:48",1
"17/09/30","09:10",0.0,21.1,70.8,1016.4,323.7,0.8,2.0,321.9,0.15,15.6,20.7,"09:01:44",1
"17/09/30","09:20",0.0,21.6,71.6,1016.6,343.8,1.1,2.4,345.8,0.20,16.3,20.9,"09:16:32",1
"17/09/30","09:30",0.0,21.9,67.6,1016.4,334.9,0.7,1.3,356.2,0.22,15.7,20.7,"09:25:04",1
"17/09/30","09:40",0.0,22.4,65.8,1016.1,320.5,0.7,1.8,328.3,0.26,15.7,20.9,"09:32:24",1
"17/09/30","09:50",0.0,22.5,65.9,1016.1,276.5,1.1,3.4,348.0,0.31,15.9,20.9,"09:48:40",1
"17/09/30","10:00",0.0,22.5,65.6,1015.9,317.7,1.2,3.2,331.0,0.26,15.8,21.2,"09:54:00",1
"17/09/30","10:10",0.0,22.9,64.9,1015.6,281.3,1.2,2.5,330.1,0.33,16.0,21.2,"10:08:48",1
"17/09/30","10:20",0.0,23.5,61.6,1015.4,329.6,1.7,3.7,328.8,0.38,15.7,21.4,"10:18:32",1
"17/09/30","10:30",0.0,23.8,62.1,1015.2,317.4,1.5,4.0,345.1,0.37,16.2,21.5,"10:26:48",1
"17/09/30","10:40",0.0,24.0,55.0,1015.4,350.8,1.6,3.4,31.7,0.41,14.5,21.6,"10:39:04",1
"17/09/30","10:50",0.0,23.8,58.0,1015.2,330.0,1.6,4.0,352.7,0.31,15.1,21.7,"10:49:12",1
"17/09/30","11:00",0.0,23.5,58.5,1015.2,332.6,2.0,3.4,341.9,0.28,14.9,21.9,"10:50:40",1
"17/09/30","11:10",0.0,24.4,56.3,1014.7,327.2,1.3,3.4,353.7,0.37,15.2,22.1,"11:06:24",1
"17/09/30","11:20",0.0,24.5,55.2,1014.2,326.2,1.5,4.1,33.9,0.43,15.0,22.1,"11:18:40",1
"17/09/30","11:30",0.0,24.5,54.0,1014.5,344.7,1.6,3.6,320.2,0.42,14.6,22.4,"11:26:16",1
"17/09/30","11:40",0.0,24.9,50.4,1014.0,325.4,1.6,4.0,344.5,0.49,13.9,22.3,"11:35:44",1
"17/09/30","11:50",0.0,25.5,47.4,1014.0,342.4,1.3,4.0,347.6,0.55,13.5,22.7,"11:49:04",1
"17/09/30","12:00",0.0,25.5,46.8,1013.3,260.1,1.2,2.7,7.7,0.55,13.3,22.8,"11:51:20",1
"17/09/30","12:10",0.0,25.9,46.2,1013.5,354.5,1.0,3.5,329.5,0.53,13.5,22.9,"12:05:12",1
"17/09/30","12:20",0.0,26.2,45.2,1013.5,9.2,1.2,3.2,350.4,0.53,13.4,23.0,"12:13:12",1
"17/09/30","12:30",0.0,26.4,48.0,1013.8,337.1,0.7,1.7,335.6,0.52,14.6,23.5,"12:22:08",1
"17/09/30","12:40",0.0,26.3,48.4,1014.0,264.0,1.2,3.9,224.5,0.52,14.6,23.4,"12:30:02",1
"17/09/30","12:50",0.0,26.3,49.2,1013.8,238.9,1.6,4.1,233.9,0.51,14.8,23.8,"12:42:00",1
"17/09/30","13:00",0.0,26.6,43.8,1013.5,332.8,1.3,3.6,338.2,0.51,13.3,23.8,"12:51:52",1
"17/09/30","13:10",0.0,26.7,42.6,1014.0,318.6,1.1,2.4,324.7,0.48,13.0,24.0,"13:06:00",1
"17/09/30","13:20",0.0,25.3,47.0,1014.0,9.6,1.5,4.0,56.5,0.22,13.2,23.8,"13:14:16",1
"17/09/30","13:30",0.0,24.9,44.2,1013.0,346.3,1.8,4.0,339.6,0.21,11.9,24.1,"13:29:20",1
"17/09/30","13:40",0.0,25.7,46.9,1013.3,351.8,1.6,3.5,352.2,0.26,13.6,23.9,"13:39:20",1
"17/09/30","13:50",0.0,26.6,42.5,1012.8,342.7,1.6,3.6,357.3,0.42,12.9,24.1,"13:48:00",1
"17/09/30","14:00",0.0,26.7,39.2,1012.8,347.0,2.0,5.6,13.2,0.43,11.7,24.1,"13:50:48",1
"17/09/30","14:10",0.0,26.5,35.4,1012.8,330.8,2.6,5.4,336.8,0.41,10.0,24.0,"14:08:32",1
"17/09/30","14:20",0.0,26.3,36.3,1012.8,328.0,3.0,5.6,342.4,0.39,10.2,24.1,"14:11:04",1
"17/09/30","14:30",0.0,26.5,38.1,1012.6,313.2,2.0,3.7,330.1,0.37,11.1,24.2,"14:24:08",1
"17/09/30","14:40",0.0,26.3,38.9,1012.8,326.2,2.6,4.9,337.2,0.35,11.3,24.2,"14:34:16",1
"17/09/30","14:50",0.0,26.0,42.6,1012.8,339.7,1.8,4.9,341.5,0.32,12.4,24.1,"14:46:00",1
"17/09/30","15:00",0.0,26.2,43.8,1012.3,354.5,1.6,3.6,319.4,0.30,13.0,24.2,"14:59:20",1
"17/09/30","15:10",0.0,26.3,40.4,1012.8,1.6,1.3,3.5,352.2,0.28,11.8,24.0,"15:01:12",1
"17/09/30","15:20",0.0,26.1,42.0,1013.0,352.4,1.6,3.5,339.3,0.25,12.2,24.2,"15:17:52",1
"17/09/30","15:30",0.0,26.0,42.3,1013.5,322.7,1.6,3.6,326.0,0.23,12.3,24.1,"15:27:20",1
"17/09/30","15:40",0.0,25.8,39.2,1013.8,351.8,1.6,4.4,349.8,0.20,10.9,23.9,"15:32:56",1
"17/09/30","15:50",0.0,25.8,39.1,1014.2,351.6,2.0,4.7,329.7,0.18,10.9,24.2,"15:42:16",1
"17/09/30","16:00",0.0,25.6,38.0,1014.0,339.2,2.2,4.9,338.9,0.15,10.3,24.0,"15:58:40",1
"17/09/30","16:10",0.0,25.2,42.1,1014.2,342.9,2.3,4.9,318.8,0.13,11.5,23.9,"16:01:04",1
"17/09/30","16:20",0.0,24.9,44.1,1014.5,337.7,2.1,4.3,311.2,0.10,11.9,23.7,"16:11:28",1
"17/09/30","16:30",0.0,24.8,45.3,1014.5,0.3,1.6,3.6,321.2,0.08,12.2,23.6,"16:27:52",1
"17/09/30","16:40",0.0,24.4,48.8,1014.9,345.8,1.8,4.4,26.4,0.06,13.0,23.6,"16:38:40",1
"17/09/30","16:50",0.0,23.9,49.4,1014.9,340.7,1.8,4.8,327.4,0.04,12.7,23.3,"16:46:00",1
"17/09/30","17:00",0.0,23.3,50.7,1015.4,355.9,1.7,4.1,339.4,0.02,12.6,23.2,"16:52:48",1
"17/09/30","17:10",0.0,22.9,52.0,1015.9,353.3,1.5,4.3,344.8,0.01,12.6,23.3,"17:01:12",1
"17/09/30","17:20",0.0,22.0,56.7,1015.9,335.5,1.5,2.4,336.9,0.00,13.1,23.0,"17:11:52",1
"17/09/30","17:30",0.0,21.2,60.3,1015.9,344.6,1.3,2.4,328.3,0.00,13.3,23.0,"17:27:44",1
"17/09/30","17:40",0.0,20.5,62.3,1015.9,335.4,1.3,2.2,324.8,0.00,13.1,22.9,"17:36:56",1
"17/09/30","17:50",0.0,19.9,65.1,1015.9,335.0,1.2,2.2,339.6,0.00,13.2,22.7,"17:41:44",1
"17/09/30","18:00",0.0,19.2,67.9,1015.9,332.7,1.3,2.2,338.5,0.00,13.2,22.6,"17:57:12",1
"17/09/30","18:10",0.0,18.7,70.1,1016.4,332.4,1.6,2.8,324.6,0.00,13.2,22.4,"18:09:12",1
"17/09/30","18:20",0.0,18.5,71.6,1016.4,328.1,1.8,4.0,334.6,0.00,13.3,22.5,"18:15:12",1
"17/09/30","18:30",0.0,18.3,73.0,1016.6,331.5,1.6,2.6,348.7,0.00,13.4,22.2,"18:24:24",1
"17/09/30","18:40",0.0,17.9,74.8,1016.6,328.7,1.2,2.5,334.9,0.00,13.4,22.2,"18:34:00",1
"17/09/30","18:50",0.0,17.6,76.1,1016.8,324.1,1.6,2.2,331.8,0.00,13.4,22.2,"18:48:32",1
"17/09/30","19:00",0.0,17.3,77.3,1017.1,302.4,0.8,2.6,330.7,0.00,13.3,21.9,"18:51:52",1
"17/09/30","19:10",0.0,17.2,77.9,1017.1,304.0,1.2,2.4,317.9,0.00,13.4,21.8,"19:00:32",1
"17/09/30","19:20",0.0,16.9,78.3,1017.5,304.6,0.8,1.7,318.4,0.00,13.1,21.7,"19:18:32",1
"17/09/30","19:30",0.0,16.4,80.1,1017.3,309.3,0.5,1.1,331.9,0.00,13.0,21.5,"19:26:40",1
"17/09/30","19:40",0.0,16.3,81.8,1017.1,299.3,1.1,2.1,325.4,0.00,13.2,21.4,"19:36:00",1
"17/09/30","19:50",0.0,16.4,82.6,1017.5,281.9,0.8,1.4,265.2,0.00,13.5,21.7,"19:46:40",1
"17/09/30","20:00",0.0,16.6,81.7,1017.3,308.6,1.5,2.6,327.5,0.00,13.5,21.5,"19:55:20",1
"17/09/30","20:10",0.0,16.7,81.2,1017.5,328.1,1.7,3.4,343.1,0.00,13.5,21.3,"20:03:44",1
"17/09/30","20:20",0.0,16.6,81.5,1017.5,339.4,1.5,2.6,341.1,0.00,13.5,21.3,"20:12:32",1
"17/09/30","20:30",0.0,16.3,82.3,1017.8,331.0,1.2,2.2,345.8,0.00,13.3,21.1,"20:21:36",1
"17/09/30","20:40",0.0,16.0,83.5,1017.5,277.0,1.0,1.7,323.4,0.00,13.2,21.1,"20:38:48",1
"17/09/30","20:50",0.0,15.8,84.5,1017.5,316.3,1.1,2.0,328.3,0.00,13.2,21.1,"20:40:16",1
"17/09/30","21:00",0.0,15.3,85.4,1018.0,312.8,1.1,1.7,327.0,0.00,12.9,20.8,"20:50:08",1
"17/09/30","21:10",0.0,15.1,86.8,1017.8,291.8,1.0,1.8,320.8,0.00,13.0,20.6,"21:04:56",1
"17/09/30","21:20",0.0,15.0,88.1,1017.8,326.4,1.2,2.1,332.1,0.00,13.1,20.7,"21:19:36",1
"17/09/30","21:30",0.0,15.4,87.9,1017.5,286.6,1.3,3.1,317.7,0.00,13.4,20.8,"21:21:12",1
"17/09/30","21:40",0.0,15.4,87.8,1017.5,293.2,1.2,2.6,315.0,0.00,13.4,20.6,"21:32:16",1
"17/09/30","21:50",0.0,15.4,87.4,1017.8,275.2,0.7,1.6,343.8,0.00,13.4,20.4,"21:42:24",1
"17/09/30","22:00",0.0,15.4,87.3,1017.8,291.9,1.1,1.9,312.5,0.00,13.3,20.6,"21:59:12",1
"17/09/30","22:10",0.0,15.6,87.5,1017.8,314.4,2.2,3.5,309.7,0.00,13.6,20.5,"22:09:36",1
"17/09/30","22:20",0.0,16.0,86.1,1017.5,321.2,2.3,4.0,324.0,0.00,13.7,20.3,"22:19:12",1
"17/09/30","22:30",0.0,16.0,85.0,1017.8,329.5,2.0,3.2,315.6,0.00,13.5,20.4,"22:21:12",1
"17/09/30","22:40",0.0,15.7,85.4,1017.8,332.0,1.7,3.2,330.5,0.00,13.3,20.2,"22:33:52",1
"17/09/30","22:50",0.0,15.7,85.4,1017.5,323.1,1.1,2.1,350.5,0.00,13.3,20.2,"22:40:08",1
"17/09/30","23:00",0.0,15.1,86.1,1017.5,292.4,1.0,1.6,319.3,0.00,12.8,20.2,"22:54:48",1
"17/09/30","23:10",0.0,14.7,87.9,1018.0,301.6,1.3,2.8,328.4,0.00,12.8,20.1,"23:08:48",1
"17/09/30","23:20",0.0,14.7,88.4,1018.2,303.2,1.0,2.2,329.6,0.00,12.8,20.1,"23:13:28",1
"17/09/30","23:30",0.0,14.7,89.3,1017.5,292.0,1.3,2.4,328.1,0.00,13.0,19.9,"23:27:36",1
"17/09/30","23:40",0.0,14.9,89.5,1017.5,318.2,1.7,3.2,327.9,0.00,13.2,20.1,"23:38:00",1
"17/09/30","23:50",0.0,15.1,89.2,1017.1,324.1,2.3,3.5,335.5,0.00,13.4,19.9,"23:43:36",1
"17/09/30","24:00",0.0,15.4,87.8,1017.3,327.0,2.8,4.2,341.6,0.00,13.4,19.8,"23:59:36",1
